Regional Weather Roundup
Issued by NWS Kansas City/Pleasant Hill, MO

Home | Current Version | Previous Version | Text Only | Print | Product List | Glossary On
Versions: 1 2 3 4 5 6 7 8 9 10 11 12 13 14 15 16 17 18 19 20 21 22 23 24 25 26 27 28 29 30 31 32 33 34 35 36 37 38 39 40 41 42 43 44 45 46 47 48 49 50
000
ASUS43 KEAX 250411
RWREAX

WEATHER ROUNDUP FOR EASTERN KANSAS AND NORTHWEST MISSOURI
NATIONAL WEATHER SERVICE KANSAS CITY/PLEASANT HILL MO
1100 PM CDT SUN MAY 24 2015

KSZ040-057-103>105-MOZ028-029-037-043-250500-
...KANSAS CITY METROPOLITAN AREA...

CITY           SKY/WX    TMP DP  RH WIND       PRES   REMARKS
K.C. INTL      CLOUDY    63  62  97 SW7       29.84R
K.C. DOWNTOWN  CLOUDY    65  61  87 SW5       29.83R
LEES SUMMIT    CLOUDY    64  62  93 S6        29.84R
OLATHE - IXD   CLOUDY    63  62  97 S9        29.84S
OLATHE - OJC   CLOUDY    64  63  96 SW7       29.83S
LAWRENCE       CLOUDY    64  61  90 S5        29.83R

$$

MOZ001>008-011>017-020>025-030>033-038>040-044>046-053-054-250500-
...NORTHERN AND CENTRAL MISSOURI...

CITY           SKY/WX    TMP DP  RH WIND       PRES   REMARKS
ST. JOSEPH     CLOUDY    64  62  93 S5        29.82S
MOSBY          CLOUDY    63  63 100 CALM      29.83S
WARRENSBURG    CLOUDY    64  63  94 S3        29.83S
WHITEMAN AFB   CLOUDY    63  63  99 S5        29.82F
CLINTON        CLOUDY    64  64 100 CALM      29.85S
SEDALIA        CLOUDY    66  63  90 S3        29.84F
WARSAW         NOT AVBL
CHILLICOTHE      N/A     64  63  96 SE3       29.84S
KIRKSVILLE     LGT RAIN  64  64 100 CALM      29.84S

$$

MOZ041-047>049-056>058-063>065-088>090-097-250500-
...EASTERN AND SOUTHERN MISSOURI...

CITY           SKY/WX    TMP DP  RH WIND       PRES   REMARKS
ST. LOUIS INTL LGT RAIN  72  66  83 SE12      29.89F
SPIRIT OF STL  CLOUDY    69  67  93 SE7       29.86F
COLUMBIA       LGT RAIN  67  67 100 CALM      29.82F
JEFFERSON CITY CLOUDY    67  66  97 E7        29.81F
ROLLA          CLOUDY    67  64  90 S17G28    29.84F
OSAGE BEACH    CLOUDY    64  63  94 W5        29.84R
SPRINGFIELD    MOCLDY    63  60  90 S9        29.88R
BRANSON        PTCLDY    63  61  94 CALM      29.93R
JOPLIN         RAIN      61  60  97 NW6       29.90R FOG
WEST PLAINS    CLOUDY    67  64  90 S12G22    29.94R

$$

IAZ060-094-KSZ022-034>040-054-083-096-NEZ052-066-093-250500-
...KANSAS...SOUTHEAST NEBRASKA AND IOWA...

CITY           SKY/WX    TMP DP  RH WIND       PRES   REMARKS
TOPEKA         CLOUDY    64  62  93 S5        29.82S
MANHATTAN      CLOUDY    64  60  87 W5        29.81R
EMPORIA        CLOUDY    62  60  93 SE14      29.79F
CHANUTE        LGT RAIN  63  62  97 SW7       29.87S
WICHITA        CLOUDY    60  58  92 S6        29.86R
OMAHA          CLOUDY    67  61  81 SW6       29.78R
LINCOLN        CLOUDY    63  60  90 SW5       29.81R
FALLS CITY     CLOUDY    63  61  93 S5        29.81R
LAMONI         CLOUDY    65  61  87 S7        29.81S
DES MOINES     LGT RAIN  67  63  87 SW6       29.79S

$$



USA.gov is the U.S. government's official web portal to all federal, state and local government web resources and services.